AEHF-4 (USA 288)

Last updated on Thu Oct 30 2025 00:02:51 GMT+0000 (Coordinated Universal Time)

1 43651U 18079A 25302.46433854 -.00000266 00000+0 00000+0 0 9996 2 43651 1.4804 343.9700 0057388 5.5032 148.1750 1.00269098 25985
UTC large
Height (km)
Speed (km/s)
/
Latitude / Longitude
Inclination (degrees)
Orbital Period (minutes)
Azimuth
Elevation
Range (km)
Doppler Factor

Next 0 passes for location: London (51.5072 / 0.1276)

Sorry there are no passes over London.